• In Portugal
  • List of Countries
  • For 7 days
  • Water Temperature
  • Satellite Maps
  • Weather Map
  • Weather Widgets
  • user-avatar
    Login

    Hourly Weather Diapaga

    Today, 18 August, Friday

    Time Temperature Precipitation Wind Pressure Humidity
    00:00 +28°C° 0 mm 3 mps 733 mmHg 79%
    01:00 +28°C° 0 mm 3 mps 733 mmHg 80%
    02:00 +27°C° 0 mm 3 mps 733 mmHg 81%
    03:00 +27°C° 0 mm 2 mps 733 mmHg 81%
    04:00 +27°C° 0.1 mm 3 mps 733 mmHg 83%
    05:00 +27°C° 0.1 mm 3 mps 733 mmHg 84%
    06:00 +27°C° 0 mm 2 mps 733 mmHg 85%
    07:00 +28°C° 1.2 mm 3 mps 733 mmHg 81%
    08:00 +29°C° 1.2 mm 3 mps 734 mmHg 77%
    09:00 +30°C° 1.2 mm 4 mps 734 mmHg 73%
    10:00 +33°C° 0 mm 3 mps 734 mmHg 63%
    11:00 +35°C° 0 mm 3 mps 733 mmHg 52%
    12:00 +37°C° 0 mm 2 mps 733 mmHg 42%
    13:00 +36°C° 0 mm 2 mps 733 mmHg 44%
    14:00 +36°C° 0 mm 2 mps 732 mmHg 46%
    15:00 +34°C° 0 mm 1 mps 732 mmHg 49%
    16:00 +33°C° 0.2 mm 1 mps 732 mmHg 54%
    17:00 +31°C° 0.2 mm 2 mps 732 mmHg 59%
    18:00 +30°C° 0.2 mm 2 mps 732 mmHg 65%
    19:00 +29°C° 1.7 mm 2 mps 732 mmHg 71%
    20:00 +28°C° 1.7 mm 3 mps 733 mmHg 77%
    21:00 +27°C° 1.7 mm 3 mps 733 mmHg 83%
    22:00 +27°C° 1.7 mm 3 mps 734 mmHg 85%
    23:00 +27°C° 1.7 mm 3 mps 734 mmHg 87%

    Tomorrow, 19 August, Saturday

    Time Temperature Precipitation Wind Pressure Humidity
    00:00 +26°C° 1.7 mm 3 mps 734 mmHg 90%
    01:00 +26°C° 1.2 mm 3 mps 733 mmHg 91%
    02:00 +26°C° 1.2 mm 3 mps 733 mmHg 91%
    03:00 +25°C° 1.2 mm 3 mps 733 mmHg 92%
    04:00 +25°C° 0.4 mm 3 mps 734 mmHg 93%
    05:00 +25°C° 0.4 mm 3 mps 734 mmHg 93%
    06:00 +25°C° 0.4 mm 3 mps 734 mmHg 94%
    07:00 +26°C° 0.1 mm 4 mps 735 mmHg 88%
    08:00 +27°C° 0.1 mm 4 mps 735 mmHg 83%
    09:00 +28°C° 0.1 mm 5 mps 736 mmHg 77%
    10:00 +29°C° 0.5 mm 4 mps 736 mmHg 74%
    11:00 +30°C° 0.5 mm 4 mps 736 mmHg 71%
    12:00 +32°C° 0.5 mm 4 mps 735 mmHg 68%
    13:00 +32°C° 1.4 mm 4 mps 735 mmHg 68%
    14:00 +31°C° 1.4 mm 3 mps 734 mmHg 68%
    15:00 +31°C° 1.4 mm 3 mps 734 mmHg 68%
    16:00 +30°C° 0.5 mm 2 mps 734 mmHg 71%
    17:00 +30°C° 0.5 mm 2 mps 734 mmHg 73%
    18:00 +29°C° 0.5 mm 1 mps 734 mmHg 76%
    19:00 +28°C° 0.7 mm 1 mps 735 mmHg 79%
    20:00 +28°C° 0.7 mm 1 mps 735 mmHg 82%
    21:00 +25°C° 0.7 mm 0 mps 736 mmHg 85%
    22:00 +27°C° 0.1 mm 1 mps 736 mmHg 86%
    23:00 +26°C° 0.1 mm 1 mps 736 mmHg 87%

    Day after tomorrow, 20 August, Sunday

    Time Temperature Precipitation Wind Pressure Humidity
    00:00 +26°C° 0.1 mm 1 mps 735 mmHg 87%
    01:00 +26°C° 0 mm 1 mps 735 mmHg 89%
    02:00 +25°C° 0 mm 1 mps 735 mmHg 90%
    03:00 +25°C° 0 mm 2 mps 735 mmHg 91%
    04:00 +25°C° 0 mm 2 mps 735 mmHg 92%
    05:00 +25°C° 0 mm 2 mps 736 mmHg 92%
    06:00 +25°C° 0 mm 2 mps 736 mmHg 93%
    07:00 +26°C° 0 mm 3 mps 737 mmHg 85%
    08:00 +28°C° 0 mm 3 mps 737 mmHg 77%
    09:00 +29°C° 0 mm 4 mps 738 mmHg 69%
    10:00 +32°C° 0.1 mm 4 mps 738 mmHg 63%
    11:00 +33°C° 0.1 mm 4 mps 737 mmHg 58%
    12:00 +34°C° 0.1 mm 3 mps 737 mmHg 53%
    13:00 +35°C° 0.3 mm 3 mps 736 mmHg 51%
    14:00 +35°C° 0.3 mm 3 mps 735 mmHg 48%
    15:00 +36°C° 0.3 mm 2 mps 735 mmHg 46%
    16:00 +34°C° 0.2 mm 2 mps 735 mmHg 53%
    17:00 +32°C° 0.2 mm 2 mps 735 mmHg 59%
    18:00 +30°C° 0.2 mm 2 mps 735 mmHg 66%
    19:00 +29°C° 0.2 mm 2 mps 736 mmHg 71%
    20:00 +28°C° 0.2 mm 2 mps 736 mmHg 77%
    21:00 +27°C° 0.2 mm 2 mps 737 mmHg 82%
    22:00 +27°C° 0 mm 2 mps 737 mmHg 83%
    23:00 +27°C° 0 mm 2 mps 737 mmHg 85%

    21 August, Monday

    Time Temperature Precipitation Wind Pressure Humidity
    00:00 +26°C° 0 mm 2 mps 736 mmHg 86%
    01:00 +26°C° 0 mm 2 mps 736 mmHg 87%
    02:00 +26°C° 0 mm 2 mps 736 mmHg 88%
    03:00 +26°C° 0 mm 2 mps 735 mmHg 89%
    04:00 +26°C° 0 mm 2 mps 735 mmHg 89%
    05:00 +26°C° 0 mm 2 mps 736 mmHg 90%
    06:00 +25°C° 0 mm 2 mps 736 mmHg 90%
    07:00 +27°C° 0 mm 3 mps 737 mmHg 82%
    08:00 +29°C° 0 mm 3 mps 737 mmHg 75%
    09:00 +30°C° 0 mm 4 mps 738 mmHg 67%
    10:00 +31°C° 0 mm 3 mps 737 mmHg 63%
    11:00 +34°C° 0 mm 3 mps 737 mmHg 58%
    12:00 +35°C° 0 mm 2 mps 736 mmHg 53%
    13:00 +34°C° 0.5 mm 2 mps 736 mmHg 56%
    14:00 +34°C° 0.5 mm 2 mps 735 mmHg 59%
    15:00 +32°C° 0.5 mm 2 mps 734 mmHg 62%
    16:00 +31°C° 1 mm 2 mps 735 mmHg 68%
    17:00 +30°C° 1 mm 2 mps 735 mmHg 74%
    18:00 +29°C° 1 mm 2 mps 735 mmHg 81%
    19:00 +28°C° 0.6 mm 2 mps 735 mmHg 83%
    20:00 +27°C° 0.6 mm 2 mps 736 mmHg 85%
    21:00 +27°C° 0.6 mm 2 mps 736 mmHg 87%
    22:00 +26°C° 0.1 mm 2 mps 736 mmHg 88%
    23:00 +26°C° 0.1 mm 2 mps 736 mmHg 89%

    22 August, Tuesday

    Time Temperature Precipitation Wind Pressure Humidity
    00:00 +26°C° 0.1 mm 2 mps 736 mmHg 90%
    01:00 +26°C° 0.5 mm 2 mps 736 mmHg 90%
    02:00 +25°C° 0.5 mm 2 mps 735 mmHg 91%
    03:00 +25°C° 0.5 mm 2 mps 735 mmHg 91%
    04:00 +25°C° 0.9 mm 2 mps 735 mmHg 92%
    05:00 +25°C° 0.9 mm 3 mps 736 mmHg 92%
    06:00 +25°C° 0.9 mm 3 mps 736 mmHg 93%
    07:00 +25°C° 3.2 mm 3 mps 737 mmHg 93%
    08:00 +25°C° 3.2 mm 3 mps 737 mmHg 92%
    09:00 +26°C° 3.2 mm 3 mps 738 mmHg 92%
    10:00 +27°C° 0.7 mm 3 mps 737 mmHg 84%
    11:00 +29°C° 0.7 mm 3 mps 736 mmHg 76%
    12:00 +30°C° 0.7 mm 3 mps 736 mmHg 69%
    13:00 +31°C° 0 mm 3 mps 735 mmHg 65%
    14:00 +33°C° 0 mm 3 mps 734 mmHg 61%
    15:00 +34°C° 0 mm 3 mps 734 mmHg 57%
    16:00 +31°C° 0 mm 3 mps 734 mmHg 62%
    17:00 +30°C° 0 mm 3 mps 734 mmHg 67%
    18:00 +29°C° 0 mm 2 mps 734 mmHg 73%
    19:00 +28°C° 0 mm 2 mps 734 mmHg 76%
    20:00 +27°C° 0 mm 2 mps 735 mmHg 79%
    21:00 +26°C° 0 mm 2 mps 735 mmHg 83%
    22:00 +26°C° 0 mm 2 mps 735 mmHg 83%
    23:00 +26°C° 0 mm 2 mps 735 mmHg 84%

    23 August, Wednesday

    Time Temperature Precipitation Wind Pressure Humidity
    00:00 +26°C° 0 mm 2 mps 735 mmHg 84%
    01:00 +26°C° 0 mm 2 mps 735 mmHg 84%
    02:00 +26°C° 0 mm 2 mps 735 mmHg 84%
    03:00 +25°C° 0 mm 3 mps 734 mmHg 84%
    04:00 +25°C° 0.1 mm 3 mps 735 mmHg 86%
    05:00 +25°C° 0.1 mm 3 mps 735 mmHg 87%
    06:00 +25°C° 0.1 mm 2 mps 735 mmHg 88%
    07:00 +27°C° 0 mm 3 mps 735 mmHg 81%
    08:00 +28°C° 0 mm 3 mps 735 mmHg 74%
    09:00 +30°C° 0 mm 4 mps 736 mmHg 68%
    10:00 +32°C° 0 mm 4 mps 735 mmHg 62%
    11:00 +34°C° 0 mm 4 mps 735 mmHg 55%
    12:00 +36°C° 0 mm 3 mps 734 mmHg 49%
    13:00 +36°C° 0 mm 3 mps 733 mmHg 49%
    14:00 +36°C° 0 mm 3 mps 733 mmHg 48%
    15:00 +36°C° 0 mm 3 mps 732 mmHg 47%
    16:00 +34°C° 4.4 mm 4 mps 732 mmHg 58%
    17:00 +32°C° 4.4 mm 4 mps 732 mmHg 70%
    18:00 +28°C° 4.4 mm 5 mps 733 mmHg 81%
    19:00 +27°C° 15.5 mm 4 mps 733 mmHg 84%
    20:00 +26°C° 15.5 mm 4 mps 734 mmHg 88%
    21:00 +25°C° 15.5 mm 3 mps 735 mmHg 92%
    22:00 +25°C° 1.6 mm 3 mps 735 mmHg 92%
    23:00 +25°C° 1.6 mm 4 mps 735 mmHg 92%
    Show more